This is the latest recevied weather packets stored in our database for station/object KC5DP. If no packets are shown the sender has not sent any weather packets the latest 10 day(s).
| Time | Temp. | Humidity | Pressure | Rain* | Wind** | Luminosity | Snow |
|---|---|---|---|---|---|---|---|
| 1778019842 | 26.67° C | 72% | 1009.8 hPa | 0 mm | - | 93 W/m² | - |
| 1778019538 | 27.22° C | 72% | 1009.9 hPa | 0 mm | - | 105 W/m² | - |
| 1778019235 | 27.22° C | 72% | 1009.8 hPa | 0 mm | - | 101 W/m² | - |
| 1778018874 | 26.67° C | 73% | 1009.9 hPa | 0 mm | - | 93 W/m² | - |
| 1778018571 | 26.67° C | 73% | 1009.9 hPa | 0 mm | - | 93 W/m² | - |
| 1778018269 | 26.67° C | 71% | 1009.9 hPa | 0 mm | - | 102 W/m² | - |
| 1778017967 | 27.22° C | 72% | 1009.9 hPa | 0 mm | - | 72 W/m² | - |
| 1778017664 | 27.22° C | 70% | 1009.8 hPa | 0 mm | - | 114 W/m² | - |
| 1778017362 | 27.22° C | 70% | 1010.1 hPa | 0 mm | - | 124 W/m² | - |
| 1778017059 | 27.22° C | 69% | 1009.8 hPa | 0 mm | - | 108 W/m² | - |
| 1778016756 | 27.22° C | 69% | 1009.9 hPa | 0 mm | - | 151 W/m² | - |
| 1778016452 | 27.22° C | 69% | 1010.1 hPa | 0 mm | - | 72 W/m² | - |
| 1778016149 | 27.22° C | 69% | 1010.1 hPa | 0 mm | - | 72 W/m² | - |
| 1778015846 | 27.22° C | 69% | 1010 hPa | 0 mm | - | 96 W/m² | - |
| 1778015544 | 27.78° C | 69% | 1010.1 hPa | 0 mm | - | 177 W/m² | - |
| 1778015240 | 27.78° C | 67% | 1009.9 hPa | 0 mm | - | 157 W/m² | - |
| 1778014937 | 27.78° C | 66% | 1009.9 hPa | 0 mm | - | 272 W/m² | - |
| 1778014634 | 27.22° C | 68% | 1010.1 hPa | 0 mm | - | 311 W/m² | - |
| 1778014332 | 27.22° C | 67% | 1010.2 hPa | 0 mm | - | 128 W/m² | - |
| 1778014028 | 27.22° C | 68% | 1010.3 hPa | 0 mm | - | 144 W/m² | - |
| 1778013726 | 27.78° C | 64% | 1010.4 hPa | 0 mm | - | 247 W/m² | - |
| 1778013424 | 27.78° C | 67% | 1010.4 hPa | 0 mm | - | 208 W/m² | - |
| 1778013121 | 27.78° C | 66% | 1010.2 hPa | 0 mm | - | 189 W/m² | - |
| 1778012816 | 27.78° C | 65% | 1010.6 hPa | 0 mm | - | 250 W/m² | - |
| 1778012513 | 27.78° C | 65% | 1010.6 hPa | 0 mm | - | 250 W/m² | - |
* Rain latest hour (hover to see other rain measurements)
** Current wind speed in m/s (hover to see current wind gust speed)